{"data":{"norad_id":57714,"epoch":"2026-09-19T07:11:39.963840Z","epoch_age_seconds":234826,"freshness":"STALE","line1":"1 57714U 23129S   26262.29976810  .00000992  00000+0  45571-4 0  9996","line2":"2 57714  43.0041 107.8154 0001228 274.6484  85.4228 15.27581333170254","mean_motion":15.27581333,"eccentricity":0.0001228,"inclination_deg":43.0041,"raan_deg":107.8154,"arg_perigee_deg":274.6484,"mean_anomaly_deg":85.4228,"bstar":4.5571e-5,"rev_number":17025,"period_min":94.266666454479,"perigee_km":482.20255139857,"apogee_km":483.88765772345,"semimajor_km":6861.182104561,"source":"CELESTRAK","updated_at":"2026-09-21T09:00:33.676815Z"}}